| time (UTC) | temp F | wind direction | speed MPH | gust MPH | rain 1hr in | rain 24hr in | rain mn in | humidity % | barometer mb |
| 20260906221946 | 71 | 108 | 6.0 | 13.0 | 0.00 | 0.06 | 0.00 | 40 | 1026.7 |
| 20260906220945 | 72 | 94 | 3.0 | 10.0 | 0.00 | 0.06 | 0.00 | 39 | 1026.7 |
| 20260906214945 | 73 | 315 | 3.0 | 6.0 | 0.00 | 0.06 | 0.00 | 31 | 1026.8 |
| 20260906213946 | 74 | 315 | 2.0 | 5.0 | 0.00 | 0.06 | 0.00 | 28 | 1026.9 |
| 20260906212945 | 74 | 316 | 2.0 | 6.0 | 0.00 | 0.06 | 0.00 | 29 | 1026.8 |
| 20260906211945 | 74 | 316 | 4.0 | 10.0 | 0.00 | 0.06 | 0.00 | 28 | 1026.8 |
| 20260906210945 | 75 | 312 | 4.0 | 10.0 | 0.00 | 0.06 | 0.00 | 27 | 1026.9 |
| 20260906205946 | 76 | 307 | 4.0 | 9.0 | 0.00 | 0.06 | 0.00 | 27 | 1027.0 |
| 20260906204946 | 76 | 303 | 3.0 | 7.0 | 0.00 | 0.06 | 0.00 | 26 | 1027.0 |
| 20260906203945 | 77 | 309 | 5.0 | 11.0 | 0.00 | 0.06 | 0.00 | 25 | 1027.1 |
| 20260906202945 | 77 | 310 | 3.0 | 8.0 | 0.00 | 0.06 | 0.00 | 28 | 1027.1 |
| 20260906201946 | 77 | 319 | 7.0 | 12.0 | 0.00 | 0.06 | 0.00 | 26 | 1027.2 |
| 20260906195945 | 77 | 326 | 4.0 | 10.0 | 0.00 | 0.06 | 0.00 | 26 | 1027.3 |
| 20260906194946 | 76 | 343 | 4.0 | 9.0 | 0.00 | 0.06 | 0.00 | 28 | 1027.4 |
| 20260906193946 | 75 | 310 | 6.0 | 13.0 | 0.00 | 0.06 | 0.00 | 27 | 1027.6 |
| 20260906192947 | 76 | 304 | 4.0 | 8.0 | 0.00 | 0.06 | 0.00 | 30 | 1027.8 |
| 20260906191946 | 78 | 312 | 2.0 | 10.0 | 0.00 | 0.06 | 0.00 | 26 | 1028.0 |
| 20260906190945 | 76 | 311 | 3.0 | 9.0 | 0.00 | 0.06 | 0.00 | 31 | 1028.0 |
| 20260906185945 | 76 | 313 | 2.0 | 5.0 | 0.00 | 0.06 | 0.00 | 31 | 1028.1 |
| 20260906184946 | 74 | 312 | 3.0 | 11.0 | 0.00 | 0.06 | 0.00 | 33 | 1028.2 |
| 20260906183946 | 75 | 314 | 2.0 | 7.0 | 0.00 | 0.06 | 0.00 | 30 | 1028.5 |
| 20260906181945 | 74 | 292 | 3.0 | 6.0 | 0.00 | 0.06 | 0.00 | 33 | 1028.9 |
| 20260906180945 | 72 | 322 | 3.0 | 8.0 | 0.00 | 0.06 | 0.00 | 36 | 1029.1 |
| 20260906175945 | 73 | 325 | 2.0 | 5.0 | 0.00 | 0.06 | 0.00 | 36 | 1029.4 |
| 20260906174945 | 71 | 323 | 2.0 | 7.0 | 0.00 | 0.06 | 0.00 | 39 | 1029.7 |
| 20260906172945 | 68 | 319 | 4.0 | 8.0 | 0.00 | 0.06 | 0.00 | 42 | 1030.0 |
| 20260906171945 | 68 | 320 | 3.0 | 8.0 | 0.00 | 0.06 | 0.00 | 41 | 1030.1 |
| 20260906170945 | 69 | 320 | 3.0 | 6.0 | 0.00 | 0.06 | 0.00 | 42 | 1030.2 |
| 20260906165946 | 69 | 320 | 3.0 | 7.0 | 0.00 | 0.06 | 0.00 | 41 | 1030.2 |
| 20260906164945 | 70 | 320 | 2.0 | 5.0 | 0.00 | 0.06 | 0.00 | 43 | 1030.4 |
| 20260906163945 | 69 | 10 | 1.0 | 4.0 | 0.00 | 0.06 | 0.00 | 45 | 1030.4 |
| 20260906161946 | 66 | 288 | 2.0 | 4.0 | 0.00 | 0.06 | 0.00 | 46 | 1030.5 |
| 20260906160945 | 65 | 98 | 1.0 | 5.0 | 0.00 | 0.06 | 0.00 | 46 | 1030.7 |
| 20260906155945 | 63 | 100 | 1.0 | 2.0 | 0.00 | 0.06 | 0.00 | 55 | 1030.8 |
| 20260906154945 | 60 | 101 | 2.0 | 3.0 | 0.00 | 0.06 | 0.00 | 56 | 1030.9 |
| 20260906153945 | 60 | 100 | 1.0 | 2.0 | 0.00 | 0.06 | 0.00 | 58 | 1030.9 |
| 20260906151945 | 58 | 101 | 1.0 | 3.0 | 0.00 | 0.06 | 0.00 | 60 | 1030.8 |
| 20260906150945 | 56 | 101 | 1.0 | 3.0 | 0.00 | 0.06 | 0.00 | 63 | 1030.9 |
| 20260906145945 | 56 | 101 | 2.0 | 5.0 | 0.00 | 0.06 | 0.00 | 63 | 1031.0 |
| 20260906143945 | 53 | 0 | 0.0 | 0.0 | 0.00 | 0.06 | 0.00 | 70 | 1031.1 |
| 20260906142945 | 52 | 0 | 0.0 | 0.0 | 0.00 | 0.06 | 0.00 | 73 | 1031.1 |
| 20260906141945 | 52 | 0 | 0.0 | 0.0 | 0.00 | 0.06 | 0.00 | 72 | 1031.2 |
| 20260906140945 | 51 | 0 | 0.0 | 0.0 | 0.00 | 0.06 | 0.00 | 78 | 1031.0 |
| 20260906135945 | 48 | 0 | 0.0 | 0.0 | 0.00 | 0.06 | 0.00 | 82 | 1031.0 |
| 20260906134946 | 49 | 0 | 0.0 | 0.0 | 0.00 | 0.06 | 0.00 | 79 | 1031.1 |
| 20260906133945 | 49 | 0 | 0.0 | 0.0 | 0.00 | 0.06 | 0.00 | 82 | 1030.8 |
| 20260906131945 | 46 | 0 | 0.0 | 0.0 | 0.00 | 0.06 | 0.00 | 87 | 1030.8 |
| 20260906130945 | 45 | 0 | 0.0 | 1.0 | 0.00 | 0.06 | 0.00 | 85 | 1030.6 |
| 20260906125945 | 45 | 0 | 0.0 | 1.0 | 0.00 | 0.06 | 0.00 | 86 | 1030.5 |
| 20260906124946 | 46 | 0 | 0.0 | 0.0 | 0.00 | 0.06 | 0.00 | 85 | 1030.4 |
| 20260906123946 | 46 | 0 | 0.0 | 0.0 | 0.00 | 0.06 | 0.00 | 84 | 1030.2 |
| 20260906121945 | 46 | 0 | 0.0 | 0.0 | 0.00 | 0.06 | 0.00 | 84 | 1030.2 |
| 20260906120945 | 47 | 0 | 0.0 | 0.0 | 0.00 | 0.06 | 0.00 | 84 | 1030.3 |
| 20260906115945 | 47 | 0 | 0.0 | 0.0 | 0.00 | 0.06 | 0.00 | 84 | 1030.2 |
| 20260906114945 | 47 | 0 | 0.0 | 0.0 | 0.00 | 0.06 | 0.00 | 84 | 1030.1 |
| 20260906113947 | 47 | 0 | 0.0 | 0.0 | 0.00 | 0.06 | 0.00 | 84 | 1030.3 |
| 20260906112947 | 47 | 0 | 0.0 | 0.0 | 0.00 | 0.06 | 0.00 | 84 | 1030.4 |
| 20260906111945 | 47 | 0 | 0.0 | 0.0 | 0.00 | 0.06 | 0.00 | 86 | 1030.3 |
| 20260906105945 | 48 | 0 | 0.0 | 0.0 | 0.00 | 0.06 | 0.00 | 82 | 1030.2 |
| 20260906104945 | 49 | 0 | 0.0 | 1.0 | 0.00 | 0.06 | 0.00 | 81 | 1030.3 |
| 20260906103945 | 48 | 0 | 0.0 | 0.0 | 0.00 | 0.06 | 0.00 | 81 | 1030.1 |
| 20260906102945 | 49 | 0 | 0.0 | 0.0 | 0.00 | 0.06 | 0.00 | 79 | 1030.1 |
| 20260906101945 | 50 | 0 | 0.0 | 0.0 | 0.00 | 0.06 | 0.00 | 78 | 1030.1 |
| 20260906100945 | 48 | 0 | 0.0 | 0.0 | 0.00 | 0.06 | 0.00 | 81 | 1030.0 |
| 20260906095945 | 48 | 0 | 0.0 | 0.0 | 0.00 | 0.06 | 0.00 | 83 | 1029.9 |
| 20260906094946 | 48 | 0 | 0.0 | 0.0 | 0.00 | 0.06 | 0.00 | 83 | 1030.0 |
| 20260906090946 | 51 | 0 | 0.0 | 0.0 | 0.00 | 0.06 | 0.00 | 77 | 1030.0 |
| 20260906085945 | 50 | 0 | 0.0 | 2.0 | 0.00 | 0.06 | 0.00 | 79 | 1029.9 |
| 20260906084945 | 50 | 0 | 0.0 | 3.0 | 0.00 | 0.06 | 0.00 | 79 | 1029.9 |
| 20260906083945 | 49 | 0 | 0.0 | 2.0 | 0.00 | 0.06 | 0.00 | 80 | 1029.8 |
| 20260906082945 | 50 | 0 | 0.0 | 1.0 | 0.00 | 0.06 | 0.00 | 80 | 1029.8 |
| 20260906080945 | 51 | 0 | 0.0 | 0.0 | 0.00 | 0.06 | 0.00 | 75 | 1029.8 |
| 20260906075945 | 52 | 0 | 0.0 | 0.0 | 0.00 | 0.06 | 0.00 | 75 | 1029.9 |
| 20260906074945 | 52 | 0 | 0.0 | 0.0 | 0.00 | 0.06 | 0.00 | 74 | 1029.8 |
| 20260906073945 | 53 | 0 | 0.0 | 0.0 | 0.00 | 0.06 | 0.00 | 73 | 1030.0 |
| 20260906072945 | 54 | 0 | 0.0 | 0.0 | 0.00 | 0.06 | 0.00 | 71 | 1029.9 |
| 20260906071945 | 54 | 0 | 0.0 | 0.0 | 0.00 | 0.06 | 0.00 | 69 | 1029.9 |
| 20260906070945 | 56 | 0 | 0.0 | 3.0 | 0.00 | 0.06 | 0.00 | 65 | 1029.7 |
| 20260906065945 | 56 | 0 | 0.0 | 2.0 | 0.00 | 0.06 | 0.00 | 67 | 1029.6 |
| 20260906064945 | 55 | 0 | 0.0 | 0.0 | 0.00 | 0.06 | 0.00 | 69 | 1029.8 |
| 20260906063945 | 55 | 0 | 0.0 | 0.0 | 0.00 | 0.06 | 0.00 | 69 | 1029.8 |
| 20260906062945 | 56 | 0 | 0.0 | 0.0 | 0.00 | 0.06 | 0.00 | 67 | 1029.8 |
| 20260906061945 | 55 | 0 | 0.0 | 0.0 | 0.00 | 0.06 | 0.00 | 68 | 1029.6 |
| 20260906060945 | 56 | 0 | 0.0 | 0.0 | 0.00 | 0.06 | 0.00 | 64 | 1029.8 |
| 20260906055952 | 56 | 100 | 1.0 | 3.0 | 0.00 | 0.06 | 0.00 | 65 | 1029.9 |
| 20260906054945 | 58 | 100 | 1.0 | 3.0 | 0.00 | 0.06 | 0.06 | 61 | 1029.9 |
| 20260906053946 | 60 | 101 | 2.0 | 6.0 | 0.00 | 0.06 | 0.06 | 57 | 1029.8 |
| 20260906051946 | 60 | 99 | 4.0 | 7.0 | 0.00 | 0.06 | 0.06 | 57 | 1029.8 |
| 20260906045945 | 58 | 95 | 4.0 | 7.0 | 0.00 | 0.06 | 0.06 | 60 | 1029.8 |
| 20260906044945 | 58 | 90 | 4.0 | 8.0 | 0.00 | 0.06 | 0.06 | 61 | 1029.9 |
| 20260906043945 | 58 | 95 | 4.0 | 8.0 | 0.00 | 0.06 | 0.06 | 62 | 1030.0 |
| 20260906042945 | 58 | 95 | 3.0 | 7.0 | 0.00 | 0.06 | 0.06 | 64 | 1030.1 |
| 20260906041945 | 58 | 91 | 4.0 | 7.0 | 0.00 | 0.06 | 0.06 | 64 | 1030.1 |
| 20260906040945 | 58 | 92 | 3.0 | 7.0 | 0.00 | 0.06 | 0.06 | 61 | 1030.3 |
| 20260906035946 | 58 | 89 | 4.0 | 11.0 | 0.00 | 0.06 | 0.06 | 62 | 1030.5 |
| 20260906033945 | 59 | 97 | 4.0 | 10.0 | 0.00 | 0.06 | 0.06 | 59 | 1030.3 |
| 20260906032945 | 58 | 112 | 3.0 | 5.0 | 0.00 | 0.06 | 0.06 | 61 | 1030.2 |
| 20260906031945 | 58 | 116 | 1.0 | 4.0 | 0.00 | 0.06 | 0.06 | 63 | 1030.2 |
| 20260906030946 | 57 | 0 | 0.0 | 2.0 | 0.00 | 0.06 | 0.06 | 66 | 1029.9 |
| 20260906025945 | 58 | 0 | 0.0 | 2.0 | 0.00 | 0.06 | 0.06 | 63 | 1029.7 |
| 20260906024945 | 58 | 0 | 0.0 | 2.0 | 0.00 | 0.06 | 0.06 | 62 | 1029.6 |
| 20260906023945 | 59 | 116 | 1.0 | 2.0 | 0.00 | 0.06 | 0.06 | 60 | 1029.5 |
| 20260906021945 | 60 | 116 | 2.0 | 3.0 | 0.00 | 0.06 | 0.06 | 57 | 1029.3 |
| 20260906020946 | 61 | 115 | 3.0 | 5.0 | 0.01 | 0.06 | 0.06 | 55 | 1029.1 |
| 20260906015946 | 60 | 112 | 2.0 | 4.0 | 0.01 | 0.06 | 0.06 | 58 | 1029.1 |
| 20260906012945 | 62 | 106 | 5.0 | 11.0 | 0.01 | 0.06 | 0.06 | 55 | 1028.9 |
| 20260906011945 | 62 | 125 | 3.0 | 7.0 | 0.01 | 0.06 | 0.06 | 59 | 1029.1 |
| 20260906010945 | 64 | 127 | 3.0 | 8.0 | 0.00 | 0.05 | 0.05 | 52 | 1029.2 |
| 20260906005945 | 64 | 98 | 4.0 | 7.0 | 0.00 | 0.05 | 0.05 | 50 | 1029.2 |
| 20260906003945 | 64 | 103 | 4.0 | 8.0 | 0.00 | 0.05 | 0.05 | 45 | 1029.2 |
| 20260906002945 | 63 | 131 | 7.0 | 15.0 | 0.00 | 0.05 | 0.05 | 52 | 1029.8 |
| 20260906001945 | 62 | 125 | 8.0 | 16.0 | 0.04 | 0.05 | 0.05 | 54 | 1029.1 |
| 20260906000945 | 64 | 120 | 5.0 | 10.0 | 0.05 | 0.05 | 0.05 | 52 | 1029.2 |
| 20260905235945 | 65 | 104 | 5.0 | 10.0 | 0.05 | 0.05 | 0.05 | 47 | 1029.2 |
| 20260905234946 | 64 | 111 | 5.0 | 8.0 | 0.05 | 0.05 | 0.05 | 54 | 1029.4 |
| 20260905233945 | 63 | 75 | 2.0 | 7.0 | 0.05 | 0.05 | 0.05 | 60 | 1029.4 |
| 20260905232944 | 62 | 359 | 1.0 | 4.0 | 0.05 | 0.05 | 0.05 | 74 | 1029.5 |
| 20260905231946 | 65 | 140 | 4.0 | 12.0 | 0.01 | 0.01 | 0.01 | 55 | 1029.4 |
| 20260905225945 | 74 | 347 | 1.0 | 4.0 | 0.00 | 0.00 | 0.00 | 32 | 1028.7 |
| 20260905224945 | 73 | 161 | 1.0 | 3.0 | 0.00 | 0.00 | 0.00 | 33 | 1028.9 |
| 20260905223947 | 71 | 159 | 2.0 | 3.0 | 0.00 | 0.00 | 0.00 | 36 | 1028.9 |